White Plains, CT

5:08 PM EDT on September 22, 2019 (GMT -0400)
Westchester County

Weather History for KHPN - July, 2019

Change the Weather History Date:

Thursday, July 25, 2019

  Actual Average Record
Temperature  
Mean Temperature 73 °F -  
Max Temperature 82 °F 80 °F 95 °F (1999)
Min Temperature 64 °F 62 °F 55 °F (1992)
Cooling Degree Days 8    
Growing Degree Days 23 (Base 50)    
Moisture  
Dew Point 56 °F    
Average Humidity 56    
Maximum Humidity 78    
Minimum Humidity 31    
Precipitation  
Precipitation 0.00 in - - ()
Sea Level Pressure  
Sea Level Pressure 30.09 in    
Wind  
Wind Speed 7 mph (NW)    
Max Wind Speed 12 mph    
Max Gust Speed -    
Visibility 10 miles    
Events      
Averages and records for this station are not official NWS values.
T = Trace of Precipitation, MM = Missing Value Source: NWS Daily Summary

Daily Weather History Graph

Daily Weather History Graph

Search for Another Location

Airport or City:

Astronomy

Jul. 25, 2019 Rise Set
Actual Time 5:43 AM EDT 8:18 PM EDT
Civil Twilight 5:12 AM EDT 8:49 PM EDT
Nautical Twilight 4:32 AM EDT 9:29 PM EDT
Astronomical Twilight 3:48 AM EDT 10:13 PM EDT
Moon 12:28 AM EDT (7/25) 1:56 PM EDT (7/25)
Length of Visible Light 15h 37m
Length of Day
14h 34m
Last Quarter, 44% of the Moon is Illuminated
Jul 25
Last Quarter
Jul 31
New
Aug 7
First Quarter
Aug 15
Full
Aug 23
Last Quarter

Hourly Weather History & Observations

Time (EDT) Temp. Heat Index Dew Point Humidity Pressure Visibility Wind Dir Wind Speed Gust Speed Precip Events Conditions
12:56 AM 66.0 °F - 57.0 °F 73% 30.01 in 10.0 mi NW 5.8 mph - N/A   Clear
1:56 AM 64.0 °F - 55.0 °F 73% 30.01 in 10.0 mi NW 6.9 mph - N/A   Clear
2:56 AM 64.9 °F - 57.9 °F 78% 30.02 in 10.0 mi WNW 6.9 mph - N/A   Clear
3:56 AM 64.9 °F - 55.9 °F 73% 30.02 in 10.0 mi WNW 6.9 mph - N/A   Clear
4:56 AM 64.9 °F - 55.9 °F 73% 30.03 in 10.0 mi NW 6.9 mph - N/A   Mostly Cloudy
5:56 AM 69.1 °F - 54.0 °F 58% 30.04 in 10.0 mi North 10.4 mph - N/A   Mostly Cloudy
6:56 AM 70.0 °F - 55.0 °F 59% 30.06 in 10.0 mi North 11.5 mph - N/A   Scattered Clouds
7:56 AM 71.1 °F - 55.0 °F 57% 30.08 in 10.0 mi North 11.5 mph - N/A   Clear
8:56 AM 73.9 °F - 55.9 °F 53% 30.09 in 10.0 mi North 11.5 mph - N/A   Clear
9:56 AM 75.9 °F - 55.9 °F 50% 30.10 in 10.0 mi North 11.5 mph - N/A   Clear
10:56 AM 78.1 °F - 57.0 °F 48% 30.11 in 10.0 mi North 9.2 mph - N/A   Partly Cloudy
11:56 AM 80.1 °F 80.2 °F 55.9 °F 43% 30.11 in 10.0 mi North 8.1 mph - N/A   Partly Cloudy
12:56 PM 80.1 °F 80.1 °F 55.0 °F 42% 30.11 in 10.0 mi WNW 6.9 mph - N/A   Partly Cloudy
1:56 PM 81.0 °F 80.4 °F 53.1 °F 38% 30.10 in 10.0 mi WNW 10.4 mph - N/A   Partly Cloudy
2:56 PM 82.0 °F 81.2 °F 53.1 °F 37% 30.10 in 10.0 mi NW 8.1 mph - N/A   Scattered Clouds
3:56 PM 82.0 °F - 51.1 °F 34% 30.10 in 10.0 mi NW 6.9 mph - N/A   Partly Cloudy
4:56 PM 82.0 °F - 52.0 °F 35% 30.09 in 10.0 mi WNW 4.6 mph - N/A   Partly Cloudy
5:56 PM 81.0 °F - 48.0 °F 31% 30.10 in 10.0 mi West 4.6 mph - N/A   Partly Cloudy
6:56 PM 79.0 °F - 55.0 °F 44% 30.12 in 10.0 mi WNW 5.8 mph - N/A   Partly Cloudy
7:56 PM 73.9 °F - 59.0 °F 59% 30.13 in 10.0 mi Calm Calm - N/A   Partly Cloudy
8:56 PM 70.0 °F - 60.1 °F 71% 30.14 in 10.0 mi Calm Calm - N/A   Partly Cloudy
9:56 PM 70.0 °F - 60.1 °F 71% 30.16 in 10.0 mi South 3.5 mph - N/A   Clear
10:56 PM 69.1 °F - 61.0 °F 75% 30.16 in 10.0 mi Calm Calm - N/A   Clear
11:56 PM 68.0 °F - 61.0 °F 78% 30.17 in 10.0 mi Calm Calm - N/A   Clear